GW1162 Weather Reports


time (UTC)temp
C
wind
direction
speed
KPH
gust
KPH
rain 1hr
cm
rain 24hr
cm
rain mn
cm
humidity
%
barometer
mb
20260510080706 7 117 1.6 4.8 0.00 0.56 0.10 95 1001.3
20260510080206 7 134 1.6 8.0 0.00 0.56 0.10 95 1001.3
20260510073206 8 0 1.6 4.8 0.00 0.56 0.10 96 1000.8
20260510070706 8 0 0.0 1.6 0.00 0.56 0.10 97 1000.7
20260510063707 8 0 0.0 3.2 0.00 0.56 0.10 97 1000.4
20260510063206 8 0 1.6 4.8 0.00 0.56 0.10 97 1000.2
20260510060206 8 345 1.6 3.2 0.00 0.56 0.10 97 1000.2
20260510050706 9 311 1.6 1.6 0.08 0.56 0.10 96 999.7
20260510050206 9 0 0.0 8.0 0.10 0.56 0.10 96 999.8
20260510040205 9 80 3.2 12.9 0.00 0.46 0.00 93 999.5
20260510033706 10 247 1.6 4.8 0.05 0.05 0.05 87 999.7
20260510033206 10 164 1.6 4.8 0.03 0.03 0.03 85 999.5
20260510030705 10 204 1.6 4.8 0.00 0.00 0.00 83 999.0
20260510030206 10 225 3.2 11.3 0.00 0.00 0.00 82 999.1
20260510023705 11 346 1.6 8.0 0.00 0.00 0.00 77 999.8
20260510023205 11 148 3.2 12.9 0.00 0.00 0.00 77 999.9
20260510020705 11 200 3.2 4.8 0.00 0.00 0.00 76 1000.0
20260510020205 11 299 1.6 14.5 0.00 0.00 0.00 75 1000.0
20260510013705 12 0 3.2 4.8 0.00 0.00 0.00 72 1000.6
20260510010706 12 279 1.6 4.8 0.00 0.00 0.00 66 1000.8
20260510010206 13 278 1.6 9.7 0.00 0.00 0.00 65 1000.7
20260510003705 13 190 3.2 11.3 0.00 0.00 0.00 60 1000.7
20260510003206 13 331 1.6 12.9 0.00 0.00 0.00 58 1000.7
20260510000705 13 332 1.6 3.2 0.00 0.00 0.00 53 1000.7
20260510000205 13 196 1.6 9.7 0.00 0.00 0.00 52 1000.7
20260509233705 14 19 0.0 1.6 0.00 0.00 0.00 49 1000.6
20260509233205 14 19 1.6 9.7 0.00 0.00 0.00 47 1000.5
20260509230705 15 76 3.2 9.7 0.00 0.00 0.00 42 1000.4
20260509230205 15 189 1.6 9.7 0.00 0.00 0.00 41 1000.4
20260509223705 16 116 3.2 12.9 0.00 0.00 0.00 37 1000.3
20260509223205 16 172 3.2 8.0 0.00 0.00 0.00 36 1000.4
20260509220705 17 108 4.8 12.9 0.00 0.00 0.00 30 1000.7
20260509220205 17 244 3.2 14.5 0.00 0.00 0.00 29 1000.7
20260509213705 18 172 1.6 8.0 0.00 0.00 0.00 27 1000.7
20260509213205 18 143 3.2 16.1 0.00 0.00 0.00 27 1000.8
20260509210205 17 304 1.6 14.5 0.00 0.00 0.00 30 1001.0
20260509203705 17 355 4.8 9.7 0.00 0.00 0.00 28 1001.0
20260509203205 17 108 3.2 19.3 0.00 0.00 0.00 30 1001.1
20260509200705 17 191 3.2 19.3 0.00 0.00 0.00 28 1001.3
20260509193204 17 298 4.8 16.1 0.00 0.00 0.00 29 1001.8
20260509190705 18 318 4.8 19.3 0.00 0.00 0.00 31 1002.3
20260509190205 18 286 4.8 14.5 0.00 0.00 0.00 30 1002.4
20260509183205 17 37 4.8 12.9 0.00 0.00 0.00 31 1002.8
20260509180706 17 185 6.4 22.5 0.00 0.00 0.00 30 1003.0
20260509180205 17 103 4.8 14.5 0.00 0.00 0.00 30 1003.0
20260509173204 16 21 3.2 19.3 0.00 0.00 0.00 36 1003.3
20260509170706 16 233 3.2 14.5 0.00 0.00 0.00 35 1003.8
20260509170206 16 109 4.8 19.3 0.00 0.00 0.00 35 1003.8
20260509163706 16 49 4.8 11.3 0.00 0.00 0.00 35 1004.2
20260509160707 15 26 3.2 8.0 0.00 0.00 0.00 34 1005.0
20260509160206 15 123 4.8 14.5 0.00 0.00 0.00 34 1005.0
20260509153706 15 110 3.2 4.8 0.00 0.00 0.00 38 1005.4
20260509153207 14 316 4.8 12.9 0.00 0.00 0.00 37 1005.3
20260509150706 14 116 3.2 14.5 0.00 0.00 0.00 40 1005.8
20260509143706 12 181 4.8 14.5 0.00 0.00 0.00 45 1005.9
20260509143206 12 9 4.8 14.5 0.00 0.00 0.00 48 1005.8
20260509140706 11 238 1.6 3.2 0.00 0.00 0.00 51 1006.1
20260509140206 10 200 1.6 4.8 0.00 0.00 0.00 52 1006.2
20260509133706 10 215 1.6 4.8 0.00 0.00 0.00 54 1006.4
20260509133206 10 134 3.2 9.7 0.00 0.00 0.00 54 1006.3
20260509130706 8 55 3.2 4.8 0.00 0.00 0.00 58 1006.4
20260509130206 8 133 3.2 9.7 0.00 0.00 0.00 59 1006.5
20260509123706 7 197 0.0 4.8 0.00 0.00 0.00 65 1006.7
20260509120706 6 169 3.2 9.7 0.00 0.00 0.00 66 1006.8
20260509120206 6 48 1.6 9.7 0.00 0.00 0.00 67 1006.7
20260509113706 6 354 0.0 3.2 0.00 0.00 0.00 69 1006.5
20260509113206 5 350 1.6 4.8 0.00 0.00 0.00 70 1006.5
20260509110706 4 70 0.0 1.6 0.00 0.00 0.00 76 1006.4
20260509110206 4 70 0.0 3.2 0.00 0.00 0.00 76 1006.4
20260509103705 4 70 0.0 0.0 0.00 0.00 0.00 79 1006.3
20260509100205 4 71 0.0 3.2 0.00 0.00 0.00 79 1006.2
20260509093706 3 167 0.0 1.6 0.00 0.00 0.00 79 1006.3
20260509093206 3 167 0.0 1.6 0.00 0.00 0.00 79 1006.1
20260509090706 3 167 0.0 1.6 0.00 0.00 0.00 81 1006.0
20260509090206 3 167 0.0 4.8 0.00 0.00 0.00 81 1006.0
20260509083705 3 167 0.0 4.8 0.00 0.00 0.00 82 1006.1